Wind_Speed
41 42 41 41 41 42 42 42 42 41 41 41 42 42 42 42 43 43 43 42 42 43 44 44 44 44 45 46 46 47 46 47 48 47 47 47 47 47 48 48 49 49 49
41 42 41 41 42 42 42 42 42 41 40 39 40 40 40 41 41 42 42 42 43 44 44 44 45 45 45 47 47 48 48 48 48 47 47 46 46 47 48 48 48 48 48
39 41 41 41 41 41 41 42 42 41 41 40 39 39 40 40 40 42 42 42 43 44 45 45 45 45 46 46 47 48 49 48 48 48 47 46 46 46 47 47 47 47 47
39 40 40 41 41 40 39 40 41 41 41 41 40 40 40 40 40 41 41 42 42 43 45 45 45 45 46 45 46 46 46 47 47 47 47 47 46 46 46 46 46 46 46
38 38 38 39 40 40 40 40 40 41 42 42 42 42 41 41 41 41 41 42 42 42 44 45 46 46 46 45 45 45 46 46 46 46 46 46 46 46 46 46 46 45 46
37 37 38 39 39 40 40 40 40 41 42 43 42 43 42 42 41 41 42 42 42 43 44 45 46 46 46 45 46 45 45 45 44 45 45 45 46 46 45 45 45 45 46
36 37 38 39 39 40 40 40 41 42 42 42 42 42 42 42 41 42 42 43 43 42 43 44 44 43 44 45 45 44 44 43 43 43 44 44 43 43 44 44 45 46 46
34 35 37 39 39 40 40 41 42 42 43 42 43 42 42 41 41 42 42 42 42 42 42 42 42 42 43 43 43 43 43 42 42 43 42 42 42 42 43 43 43 43 44
32 33 35 37 38 40 40 41 42 42 42 42 41 42 41 41 41 42 41 42 42 41 40 40 41 41 42 42 41 42 42 41 41 40 39 40 40 40 41 42 42 42 42
31 32 33 34 35 35 37 38 39 40 40 39 40 41 42 41 41 41 41 41 40 40 39 40 40 40 40 39 39 39 39 38 38 37 37 37 38 39 40 40 40 40 40
28 29 31 32 33 34 35 37 38 38 39 40 40 40 40 40 40 40 40 39 38 37 37 37 37 37 37 37 37 37 37 37 37 37 37 37 38 39 40 39 39 39 38
26 27 28 30 31 32 33 35 36 37 38 38 38 38 38 38 38 38 38 36 36 35 35 36 36 36 36 36 36 36 36 36 36 36 37 37 38 38 38 37 37 37 36
27 26 27 29 30 31 32 34 35 36 36 36 37 37 37 37 37 36 35 35 35 35 35 36 35 35 35 35 35 35 35 36 36 36 36 36 37 36 35 35 35 35 35
27 27 27 28 29 30 32 32 33 34 35 35 35 36 36 36 35 34 34 34 34 34 34 33 33 33 33 33 33 34 34 34 34 34 34 34 35 35 34 34 34 34 33
25 26 27 27 29 29 30 30 31 32 33 33 34 34 34 33 33 33 33 33 33 33 32 32 31 32 32 32 33 33 33 33 33 33 33 33 33 33 33 33 32 32 31
25 26 27 27 28 28 29 29 30 30 31 31 31 32 32 32 32 33 33 32 32 32 31 30 30 31 31 31 32 32 32 31 31 31 31 31 30 31 31 30 29 29 28
25 26 26 26 27 27 28 28 28 29 29 30 30 29 29 30 31 31 31 31 31 31 30 30 29 29 29 29 29 30 31 31 30 29 29 28 28 28 28 27 26 26 25
25 25 26 27 27 27 27 26 26 27 27 27 27 27 27 28 28 28 29 29 29 29 29 29 28 28 28 27 27 27 28 28 27 27 27 27 26 26 26 25 24 23 22
23 23 24 24 25 25 24 24 24 24 24 24 24 24 24 25 26 27 28 28 28 28 28 28 28 27 27 26 25 25 25 25 25 25 25 24 24 24 23 22 21 21 21
21 21 21 22 23 23 23 23 23 23 23 23 23 24 24 24 25 26 26 26 26 26 26 27 26 25 25 25 24 23 22 22 23 23 23 22 21 21 21 21 21 21 21
19 20 20 21 22 22 22 21 21 21 22 22 22 22 22 22 22 23 24 24 24 23 23 24 25 24 24 23 22 21 21 21 22 22 22 21 20 19 19 20 21 21 21
17 18 19 19 19 19 19 19 20 20 20 20 21 21 21 21 21 22 22 22 22 22 22 23 24 23 23 22 21 22 22 23 23 22 22 20 19 18 18 19 19 20 21
16 16 17 17 17 17 18 18 19 19 19 19 20 20 20 21 22 22 22 22 21 22 22 22 22 22 22 22 22 22 22 22 21 20 19 18 18 18 18 17 18 18 18
16 16 15 15 16 16 17 18 18 18 18 18 18 19 19 20 20 21 20 20 20 20 20 20 21 21 21 21 21 21 21 20 19 18 18 17 17 17 17 16 16 15 16
16 15 15 15 16 17 17 17 17 18 18 18 19 19 19 18 18 19 19 19 20 20 20 20 21 21 20 20 19 19 19 18 18 17 17 17 17 17 16 16 16 16 16
15 15 15 16 16 16 16 17 17 16 17 18 18 18 18 18 18 18 18 18 18 19 19 20 20 20 19 19 18 18 17 16 16 16 16 16 16 16 15 15 15 15 14
Wind_Direction
242 241 242 242 243 244 245 245 246 248 250 252 253 254 254 254 255 255 256 256 255 256 258 259 261 264 266 268 269 272 276 277 278 279 277 278 280 281 284 286 288 290 292
243 242 243 242 244 245 245 245 245 247 249 251 253 253 254 256 257 257 256 256 257 257 258 260 261 264 266 268 269 271 274 277 278 278 277 279 281 282 285 286 289 291 293
243 243 243 244 246 245 245 245 244 246 248 251 253 254 255 257 258 257 256 257 258 257 259 261 263 264 267 269 270 272 274 276 277 277 278 279 281 282 284 286 288 290 292
245 244 244 243 244 245 245 246 246 248 250 251 252 254 255 257 258 257 258 259 259 260 261 262 264 266 268 270 271 273 275 276 276 277 278 279 280 282 284 286 288 290 290
245 245 243 243 244 245 245 246 247 248 249 251 252 254 256 258 259 259 259 261 261 262 264 265 265 266 269 270 273 274 275 276 278 278 278 278 279 281 283 285 288 289 289
245 244 243 244 245 246 245 247 248 249 250 251 253 255 256 258 259 259 260 262 262 264 265 266 267 267 268 270 273 275 277 278 279 278 278 278 279 281 282 284 287 288 289
246 244 243 244 246 246 246 248 250 250 251 252 254 255 257 259 260 260 261 263 264 264 265 267 268 268 269 272 273 276 278 279 279 279 278 278 279 281 283 285 286 287 289
246 245 245 246 248 249 249 249 249 249 251 253 254 255 257 258 259 259 261 262 263 265 267 268 268 269 271 272 273 275 278 278 277 278 279 279 280 282 284 285 286 288 289
248 249 248 247 247 248 248 248 248 249 251 252 253 255 256 257 259 261 261 262 263 265 267 267 270 271 271 272 273 275 276 277 277 277 279 279 280 282 284 286 288 289 289
251 251 251 250 248 248 248 248 248 248 249 251 254 255 256 258 258 260 262 264 265 265 266 268 270 272 272 271 272 274 275 276 277 278 278 279 280 282 284 286 288 288 290
254 253 253 253 251 250 250 249 250 250 252 253 255 257 258 259 260 261 263 264 264 265 267 269 270 271 270 270 271 272 273 275 277 278 279 280 282 283 285 287 288 288 290
256 255 253 253 253 252 253 251 252 253 254 256 256 257 257 259 261 261 262 262 263 265 267 268 269 269 269 269 270 270 271 273 277 279 281 281 284 284 285 286 287 289 291
258 257 255 255 254 254 254 254 254 254 254 255 256 257 256 257 259 260 260 262 265 267 267 268 268 269 269 269 269 269 270 273 277 280 280 281 283 284 284 285 287 290 291
260 258 258 258 258 258 257 257 256 256 256 258 259 260 259 260 260 260 262 264 265 266 266 266 267 268 269 269 268 269 270 273 276 279 279 281 283 284 284 285 287 290 290
263 262 262 261 261 260 259 258 258 258 259 260 260 260 261 260 259 261 262 264 264 264 265 266 267 267 269 269 268 268 269 273 276 278 279 281 282 283 285 286 287 288 289
263 263 263 263 262 261 260 260 260 260 260 260 260 260 259 259 260 261 262 262 262 262 263 265 266 268 270 270 269 268 269 272 275 278 280 281 282 284 285 286 287 288 290
262 262 262 262 264 264 264 264 263 261 261 260 260 259 258 259 259 259 260 259 259 260 262 263 264 267 269 270 270 269 269 271 273 276 278 279 281 283 285 285 287 288 290
263 263 263 264 265 267 267 265 264 263 262 261 258 257 257 257 257 258 259 259 259 259 260 261 263 266 269 270 271 270 269 269 270 273 276 279 281 283 284 285 287 288 288
266 266 266 266 266 267 267 266 265 264 262 260 258 258 257 257 258 259 259 259 259 258 258 259 263 265 267 268 269 268 268 268 270 271 274 279 282 283 284 283 281 283 285
265 265 266 267 267 267 266 264 264 261 259 258 259 259 258 258 258 257 257 257 258 258 258 259 261 262 264 267 267 267 267 268 271 272 274 278 281 281 279 277 279 282 284
265 265 267 268 268 267 265 263 262 260 259 259 260 259 258 256 257 258 257 257 257 258 259 259 260 261 262 263 266 266 266 268 270 273 274 276 277 278 279 278 278 279 282
270 269 269 268 267 265 263 261 259 259 261 260 259 258 257 257 256 256 256 257 257 257 259 260 259 260 259 260 263 266 267 267 268 271 272 272 273 275 277 279 279 281 283
271 271 269 268 266 264 262 261 260 260 260 258 257 257 257 257 256 256 256 256 257 258 259 258 257 256 257 261 263 264 265 266 266 265 265 268 271 274 277 278 281 282 283
269 269 267 266 266 264 263 263 261 259 257 256 255 256 257 258 257 256 254 253 255 256 256 255 255 255 257 261 262 261 261 261 259 259 261 265 269 274 277 279 280 281 283
269 267 267 268 268 265 263 262 260 258 257 256 256 256 257 259 258 255 252 252 253 253 254 255 256 258 259 260 260 259 257 256 257 260 262 264 268 272 276 279 281 282 283
269 270 270 271 269 267 264 261 259 259 260 259 257 256 257 257 257 253 251 251 253 254 256 257 258 258 259 258 257 256 255 256 258 260 261 264 268 272 276 279 280 281 282
Height
5610 5613 5616 5619 5622 5625 5628 5631 5634 5637 5640 5642 5644 5646 5648 5650 5652 5655 5657 5659 5661 5663 5665 5667 5668 5669 5669 5669 5669 5669 5667 5666 5665 5665 5663 5661 5659 5657 5655 5653 5650 5647 5643
5600 5603 5606 5608 5610 5613 5617 5620 5623 5626 5629 5631 5634 5636 5638 5640 5642 5644 5646 5648 5651 5653 5654 5655 5656 5657 5658 5658 5657 5656 5655 5653 5652 5652 5651 5649 5647 5646 5643 5640 5637 5634 5631
5590 5592 5595 5598 5600 5603 5606 5609 5612 5616 5619 5621 5624 5626 5628 5630 5632 5634 5636 5638 5640 5641 5642 5643 5644 5645 5645 5645 5645 5644 5642 5641 5640 5639 5638 5637 5635 5633 5631 5628 5625 5622 5619
5580 5582 5585 5587 5590 5593 5596 5599 5602 5606 5608 5611 5614 5616 5619 5620 5622 5624 5625 5627 5629 5630 5631 5632 5632 5633 5633 5633 5633 5632 5630 5629 5627 5626 5625 5624 5623 5621 5618 5616 5614 5611 5607
5569 5572 5574 5577 5580 5583 5586 5589 5592 5595 5598 5601 5604 5606 5608 5610 5612 5613 5615 5617 5618 5619 5620 5620 5621 5621 5621 5621 5620 5619 5618 5617 5615 5614 5613 5612 5610 5608 5607 5605 5602 5599 5596
5559 5562 5564 5567 5570 5572 5576 5579 5582 5585 5588 5591 5594 5596 5598 5600 5602 5603 5604 5605 5606 5608 5609 5609 5609 5609 5609 5609 5608 5607 5606 5605 5604 5603 5601 5600 5599 5597 5594 5592 5589 5587 5585
5550 5552 5554 5557 5559 5562 5565 5568 5572 5575 5578 5580 5583 5585 5587 5589 5591 5592 5593 5594 5595 5596 5597 5597 5598 5597 5597 5597 5596 5596 5594 5593 5592 5591 5590 5588 5587 5585 5583 5581 5577 5574 5572
5540 5542 5544 5546 5549 5552 5554 5558 5561 5564 5567 5570 5572 5574 5576 5578 5580 5581 5582 5583 5584 5585 5585 5586 5586 5586 5586 5586 5585 5584 5583 5582 5581 5579 5579 5577 5575 5573 5571 5569 5565 5563 5560
5531 5532 5534 5536 5539 5541 5544 5547 5549 5552 5556 5558 5561 5563 5565 5567 5569 5570 5571 5572 5573 5574 5574 5574 5575 5575 5575 5574 5573 5573 5572 5571 5569 5568 5567 5565 5564 5562 5560 5557 5554 5552 5549
5522 5524 5525 5527 5529 5531 5534 5536 5539 5542 5544 5547 5550 5552 5554 5556 5558 5559 5560 5561 5562 5563 5563 5564 5564 5563 5563 5562 5562 5561 5561 5560 5559 5558 5556 5555 5553 5550 5548 5546 5544 5541 5538
5514 5515 5517 5518 5520 5522 5524 5527 5529 5531 5534 5537 5539 5541 5543 5545 5547 5548 5549 5550 5551 5552 5553 5553 5553 5552 5551 5551 5551 5551 5550 5549 5548 5547 5546 5544 5542 5540 5538 5536 5533 5531 5528
5507 5508 5509 5510 5512 5514 5515 5517 5519 5522 5524 5526 5528 5530 5532 5534 5535 5536 5538 5539 5540 5541 5542 5542 5542 5541 5541 5540 5540 5540 5540 5539 5538 5537 5535 5534 5532 5531 5528 5526 5524 5521 5518
5500 5500 5501 5502 5503 5505 5506 5508 5510 5511 5513 5515 5517 5519 5521 5523 5524 5525 5527 5528 5529 5531 5531 5531 5531 5531 5530 5530 5530 5530 5529 5529 5528 5527 5526 5525 5523 5521 5519 5517 5514 5511 5508
5492 5493 5494 5494 5495 5496 5497 5498 5500 5501 5503 5504 5506 5508 5510 5512 5514 5515 5517 5518 5519 5520 5521 5521 5521 5521 5520 5520 5520 5520 5520 5519 5518 5517 5516 5515 5514 5512 5510 5507 5505 5503 5500
5485 5485 5486 5487 5487 5488 5489 5490 5491 5492 5493 5495 5497 5498 5500 5502 5504 5505 5506 5508 5509 5510 5510 5511 5511 5511 5511 5511 5510 5510 5510 5509 5509 5508 5507 5506 5505 5503 5501 5499 5497 5494 5492
5478 5478 5479 5479 5479 5480 5481 5482 5482 5483 5484 5485 5487 5489 5490 5492 5494 5495 5497 5498 5499 5500 5501 5502 5502 5502 5502 5501 5500 5500 5500 5500 5500 5499 5498 5498 5496 5495 5493 5491 5489 5487 5485
5470 5471 5471 5472 5472 5472 5473 5473 5474 5475 5475 5476 5478 5479 5481 5482 5484 5486 5487 5488 5490 5491 5492 5493 5493 5493 5493 5492 5492 5491 5492 5491 5491 5491 5490 5490 5489 5487 5486 5484 5483 5481 5480
5463 5463 5464 5464 5465 5465 5465 5465 5466 5466 5467 5467 5469 5470 5472 5473 5475 5477 5478 5479 5481 5482 5483 5484 5484 5485 5485 5485 5484 5484 5483 5483 5483 5483 5483 5482 5481 5480 5479 5478 5477 5475 5474
5455 5456 5456 5456 5457 5457 5457 5457 5458 5458 5459 5460 5461 5463 5464 5465 5467 5468 5470 5471 5472 5473 5474 5475 5476 5476 5477 5477 5477 5476 5476 5476 5476 5476 5476 5475 5474 5473 5473 5472 5471 5470 5469
5448 5449 5449 5449 5449 5450 5450 5450 5450 5451 5452 5453 5454 5455 5456 5458 5459 5461 5462 5463 5464 5465 5466 5467 5468 5468 5469 5469 5469 5469 5469 5469 5469 5469 5469 5468 5468 5467 5467 5466 5466 5464 5463
5442 5442 5442 5442 5442 5442 5443 5443 5444 5444 5445 5446 5447 5448 5450 5451 5452 5453 5454 5455 5456 5457 5458 5459 5460 5461 5461 5462 5462 5462 5463 5463 5463 5463 5462 5462 5462 5462 5461 5461 5460 5459 5458
5437 5436 5436 5436 5436 5436 5436 5436 5437 5437 5438 5439 5440 5441 5443 5444 5445 5446 5447 5448 5449 5450 5451 5452 5453 5453 5454 5454 5455 5456 5456 5456 5456 5456 5456 5456 5456 5456 5455 5455 5454 5453 5452
5431 5431 5430 5430 5430 5430 5430 5431 5431 5431 5432 5433 5434 5435 5436 5437 5438 5439 5440 5441 5442 5443 5444 5445 5446 5446 5447 5447 5448 5449 5450 5450 5450 5450 5450 5450 5450 5450 5450 5449 5448 5447 5447
5426 5425 5425 5425 5425 5425 5425 5425 5425 5425 5426 5427 5428 5428 5430 5430 5431 5432 5433 5434 5435 5436 5437 5438 5439 5440 5440 5441 5442 5442 5443 5443 5443 5443 5444 5445 5445 5444 5444 5444 5443 5442 5441
5420 5420 5419 5419 5419 5419 5419 5419 5419 5420 5420 5421 5422 5422 5423 5424 5425 5426 5427 5428 5429 5430 5431 5432 5433 5433 5434 5434 5435 5435 5436 5436 5437 5438 5438 5439 5439 5439 5438 5438 5437 5437 5436
5415 5414 5414 5414 5413 5413 5413 5414 5414 5414 5414 5415 5416 5416 5417 5418 5419 5420 5421 5422 5423 5424 5425 5426 5426 5427 5427 5428 5429 5429 5430 5431 5431 5432 5432 5433 5433 5433 5433 5432 5432 5431 5431